Location: Newark
(3.0500°N, 36.0167°E)
Time: 07:41:27
(UTC+00:00)

Transit 2A Rocket - Pass Details

Date: 25 August 2019
Orbit: 592 x 911 km, 66.7° (Epoch: 22 September)

Event Time Altitude Azimuth Distance (km) Brightness Sun altitude
Rises 01:26:33 0° 17° (NNE) 2,817 8.3 -31.5°
Reaches altitude 10° 01:30:44 10° 57° (ENE) 1,915 7.9 -30.5°
Maximum altitude 01:31:37 11° 69° (ENE) 1,882 7.9 -30.3°
Drops below altitude 10° 01:32:31 10° 81° (E) 1,922 8.0 -30.1°
Sets 01:36:44 0° 121° (ESE) 2,862 8.6 -29.1°
